Location: SBMNH
(34.4407°N, 119.7157°W)
Time: 15:37:06
(UTC-07:00)

Tiangong - Pass Details

Date: 20 August 2022
Orbit: 382 x 385 km, 41.5° (Epoch: 07 October)

Event Time Altitude Azimuth Distance (km) Brightness Sun altitude
Rises 21:40:30 0° 295° (WNW) 2,258 3.2 -23.3°
Reaches altitude 10° 21:42:50 10° 311° (NW) 1,408 1.8 -23.7°
Enters shadow 21:45:02 23° 353° (N) 888 0.1 -24.0°
